Date,TemperatureHighF,TemperatureAvgF,TemperatureLowF,DewpointHighF,DewpointAvgF,DewpointLowF,HumidityHigh,HumidityAvg,HumidityLow,PressureMaxIn,PressureMinIn,WindSpeedMaxMPH,WindSpeedAvgMPH,GustSpeedMaxMPH,PrecipitationSumIn
2013-1-13,64.6,51.0,46.6,58.4,47.2,-99.9,98,92,83,30.00,29.86,8,-18,0,0.06
2013-1-14,46.2,33.5,26.1,45.7,27.9,20.3,98,80,66,30.31,29.87,8,3,0,0.10
2013-1-15,32.9,28.2,24.8,23.2,21.7,19.8,88,77,62,30.21,29.92,4,1,0,0.00
2013-1-16,39.2,32.8,27.9,31.8,26.7,21.9,85,78,72,29.91,29.56,10,3,0,0.00
2013-1-17,36.0,25.8,15.1,29.8,19.6,11.9,89,77,71,30.00,29.69,7,3,0,0.00
2013-1-18,33.3,22.1,12.4,22.8,14.4,7.7,91,73,53,30.25,29.81,8,3,0,0.00
2013-1-19,47.3,42.2,32.5,34.0,30.6,22.8,72,63,55,29.82,29.41,10,5,0,0.02
2013-1-20,47.8,30.5,18.0,37.5,20.3,9.9,84,66,52,29.97,29.32,16,6,0,0.02
2013-1-21,24.3,17.9,10.4,16.0,9.6,-0.3,86,70,52,29.95,29.72,7,2,0,0.00
2013-1-22,13.3,8.2,4.5,-0.3,-3.2,-5.8,65,59,50,30.08,29.80,7,4,0,0.00
2013-1-23,17.4,10.4,3.6,5.9,-0.3,-4.9,76,62,47,30.11,29.97,5,2,0,0.00
2013-1-24,20.5,11.0,-2.0,13.3,4.9,-7.0,88,76,63,30.39,29.96,6,1,0,0.00
2013-1-25,22.3,10.8,-1.7,11.3,4.7,-6.4,86,77,57,30.36,29.90,5,1,0,0.00
2013-1-26,34.5,17.2,4.8,20.2,11.2,1.3,91,78,52,30.23,29.92,4,0,0,0.00
2013-1-27,32.4,18.6,4.6,25.5,13.0,0.9,94,79,63,30.36,30.12,5,1,0,0.00
2013-1-28,42.1,35.1,24.3,41.6,33.5,17.5,98,94,75,30.12,29.63,7,2,0,0.73
2013-1-29,56.5,42.7,34.3,55.9,42.2,33.8,98,98,98,29.84,29.50,7,1,0,0.82
2013-1-30,64.9,58.1,51.6,58.9,54.5,49.7,98,88,72,29.50,28.88,10,5,0,0.82
2013-1-31,49.8,28.8,21.0,49.3,22.3,13.4,98,77,50,29.61,28.89,11,6,0,0.14
2013-2-1,24.3,19.5,15.4,18.1,13.0,7.2,90,76,57,30.10,29.62,8,3,0,0.00
2013-2-2,24.3,18.2,13.5,17.7,13.7,6.3,91,82,71,30.09,29.84,7,2,0,0.00
2013-2-3,33.4,19.4,3.0,23.8,13.8,-0.7,93,80,50,29.87,29.66,4,1,0,0.00
2013-2-4,25.7,17.7,12.0,14.2,10.6,6.5,88,74,58,29.87,29.76,6,2,0,0.00
2013-2-5,36.1,23.6,12.2,23.1,16.5,9.8,91,76,50,29.84,29.71,5,2,0,0.01
2013-2-6,31.8,24.2,13.5,23.9,16.5,9.3,88,73,52,30.27,29.78,5,2,0,0.00
2013-2-7,34.2,24.8,12.0,22.2,17.7,9.1,91,75,60,30.28,29.95,7,2,0,0.00
2013-2-8,35.2,26.4,16.5,33.6,24.3,14.8,98,92,80,30.05,29.64,6,1,0,0.00
2013-2-9,33.6,17.8,2.1,25.2,14.1,-1.6,94,86,67,30.31,30.06,0,0,0,0.00
2013-2-10,50.4,23.3,-4.4,32.5,16.0,-8.7,95,75,46,30.30,29.79,2,0,0,0.54
2013-2-11,52.5,39.1,32.7,44.9,34.4,27.9,98,83,65,29.80,29.44,16,5,0,0.62
2013-2-12,36.5,33.2,30.6,31.2,27.9,24.0,95,81,71,29.86,29.63,10,4,0,0.00
2013-2-13,40.8,30.3,18.7,27.7,23.5,16.3,93,76,58,29.81,29.61,4,1,0,0.00
2013-2-14,41.9,31.8,17.6,36.7,28.3,16.4,98,88,61,29.80,29.65,7,2,0,0.14
2013-2-15,37.4,31.8,18.5,33.6,24.7,14.4,86,75,61,30.00,29.67,10,4,0,0.00
2013-2-16,33.3,23.6,16.2,21.3,16.0,9.9,90,74,51,29.99,29.83,5,1,0,0.00
2013-2-17,20.3,16.2,11.8,18.6,9.5,3.5,93,75,60,30.15,29.82,5,3,0,0.00
2013-2-18,36.1,21.9,5.0,22.6,12.7,1.5,89,69,45,30.19,29.75,5,1,0,0.01
2013-2-19,43.3,32.9,23.4,39.7,28.6,19.0,98,84,73,29.76,29.42,11,5,0,0.52
2013-2-20,25.0,21.3,18.9,18.5,14.3,11.2,90,74,64,30.03,29.68,9,5,0,0.00
2013-2-21,27.5,20.3,16.0,16.6,13.8,10.2,89,76,62,30.32,29.99,5,2,0,0.00
2013-2-22,36.0,28.6,20.1,32.8,24.5,16.3,94,85,68,30.31,29.88,8,2,0,0.03
2013-2-23,41.0,34.1,30.4,35.3,29.9,25.6,90,85,75,29.89,29.79,7,2,0,0.01
2013-2-24,34.0,31.1,28.9,29.1,26.3,24.8,90,82,73,30.01,29.77,5,2,0,0.00
2013-2-25,39.4,32.4,23.4,31.7,27.4,21.7,93,82,71,30.14,30.01,4,0,0,0.00
2013-2-26,45.5,35.6,22.3,34.4,29.4,21.1,98,80,56,30.14,29.60,10,3,0,1.03
2013-2-27,38.1,34.4,32.5,37.6,33.9,32.0,98,98,95,29.62,29.47,6,1,0,0.58
2013-2-28,39.7,34.4,31.5,38.5,33.6,31.0,98,97,91,29.67,29.44,5,2,0,0.35
2013-3-1,33.4,29.1,25.0,31.0,25.5,20.9,98,86,76,29.89,29.68,7,2,0,0.00
2013-3-2,30.0,24.9,20.8,22.4,19.9,17.3,87,81,71,29.89,29.80,5,2,0,0.00
2013-3-3,33.1,24.5,20.3,23.8,20.4,18.0,94,85,64,29.85,29.76,5,2,0,0.00
2013-3-4,37.4,26.7,17.2,24.2,20.6,14.3,89,78,55,29.99,29.85,5,2,0,0.00
2013-3-5,39.2,28.1,17.8,27.8,22.3,15.3,91,79,62,30.03,29.86,8,2,0,0.08
2013-3-6,44.4,33.9,24.8,35.6,29.7,22.2,93,85,70,30.07,29.85,5,2,0,0.00
2013-3-7,40.8,34.9,28.4,35.7,32.0,27.2,98,89,70,30.21,30.06,3,1,0,0.00
2013-3-8,45.7,34.7,25.2,33.3,28.2,23.5,98,79,53,30.33,30.20,9,1,0,0.03
2013-3-9,50.0,34.8,22.5,38.4,30.3,22.0,98,85,57,30.35,30.09,3,1,0,0.00
2013-3-10,68.2,50.1,31.3,41.3,34.4,28.7,92,59,35,30.09,29.84,7,2,0,0.00
2013-3-11,67.5,55.8,46.6,46.1,37.7,34.1,98,52,37,29.85,29.52,9,2,0,0.15
2013-3-12,46.2,37.9,33.8,45.7,34.8,29.8,98,89,79,29.82,29.60,11,4,0,0.04
2013-3-13,39.6,31.5,21.9,32.3,27.1,17.8,94,84,66,29.92,29.71,8,4,0,0.02
2013-3-14,35.1,27.3,21.2,18.3,15.1,7.3,87,62,33,30.01,29.91,7,4,0,0.00
2013-3-15,37.8,31.8,23.7,34.6,27.2,17.3,93,83,65,29.97,29.65,11,3,0,0.00
2013-3-16,30.7,27.1,18.1,23.7,19.7,14.8,90,74,63,29.91,29.73,6,2,0,0.00
2013-3-17,34.9,25.5,16.9,24.9,17.0,9.9,91,71,50,30.25,29.90,7,2,0,0.00
2013-3-18,36.1,27.3,16.5,33.5,20.7,9.6,98,77,52,30.25,29.56,7,3,0,0.00
2013-3-19,36.3,31.8,24.4,35.8,27.4,19.9,98,84,65,29.76,29.54,9,5,0,0.19
2013-3-20,32.7,26.4,19.2,25.1,21.1,14.9,94,81,61,29.77,29.70,7,3,0,0.01
2013-3-21,30.4,23.9,14.9,26.9,19.3,12.7,97,83,56,29.75,29.61,10,3,0,0.00
2013-3-22,36.3,29.0,23.9,31.6,26.3,22.4,94,90,81,29.87,29.67,6,3,0,0.00
2013-3-23,42.3,33.7,25.5,31.5,26.1,23.0,91,75,52,29.94,29.85,5,2,0,0.12
2013-3-24,41.5,32.0,20.5,34.0,24.4,19.1,98,74,56,29.95,29.62,7,2,0,0.00
2013-3-25,45.1,36.4,31.1,33.7,29.0,25.4,88,75,61,29.66,29.49,7,2,0,0.00
2013-3-26,53.1,39.5,30.7,37.5,31.7,27.5,92,75,44,29.88,29.66,5,1,0,0.00
2013-3-27,45.7,35.0,30.4,35.8,31.8,26.2,98,89,67,30.00,29.86,5,2,0,0.10
2013-3-28,45.1,37.1,32.4,38.7,34.7,31.9,98,91,65,30.14,29.98,5,1,0,0.16
2013-3-29,52.9,40.1,29.3,39.1,34.5,27.8,98,82,53,30.15,30.05,7,2,0,0.00
2013-3-30,53.4,37.0,25.0,40.9,30.0,24.5,98,80,44,30.15,29.94,7,2,0,0.00
2013-3-31,56.1,47.4,40.8,44.7,41.3,32.4,98,82,49,29.71,29.49,5,2,0,0.06
2013-4-1,45.9,35.6,26.8,44.3,26.9,18.5,98,72,47,29.89,29.48,9,4,0,0.02
2013-4-2,36.3,29.3,23.0,24.2,19.0,16.5,77,66,53,30.05,29.89,8,4,0,0.00
2013-4-3,39.9,31.2,25.2,23.6,19.2,17.2,78,62,42,30.32,30.05,8,3,0,0.00
2013-4-4,51.8,34.6,19.9,27.0,20.3,10.4,93,61,20,30.28,29.83,8,2,0,0.00
2013-4-5,47.5,37.5,27.9,33.0,24.8,17.1,78,60,48,30.09,29.80,6,2,0,0.00
2013-4-6,53.8,37.7,18.7,30.7,22.7,14.9,89,58,28,30.24,29.91,6,1,0,0.00
2013-4-7,68.9,54.2,41.9,51.1,38.1,26.6,77,56,37,29.96,29.60,11,4,0,0.00
2013-4-8,63.1,48.0,30.4,53.9,40.6,28.4,98,77,51,30.03,29.64,7,2,0,0.24
2013-4-9,63.7,51.3,45.7,52.4,47.2,44.1,98,87,59,30.03,29.69,6,2,0,0.84
2013-4-10,47.8,44.1,39.6,47.3,43.6,39.1,98,98,98,29.94,29.75,8,3,0,0.87
2013-4-11,39.6,35.4,32.9,39.1,34.3,31.8,98,96,84,30.01,29.80,9,4,0,0.70
2013-4-12,50.2,39.2,33.6,49.7,38.3,33.1,98,97,89,29.79,29.38,12,4,0,0.75
2013-4-13,45.0,40.7,37.8,39.9,37.4,35.6,94,88,74,29.85,29.68,10,5,0,0.00
2013-4-14,49.8,41.4,34.2,36.1,32.9,29.3,93,73,54,30.09,29.85,7,3,0,0.00
2013-4-15,74.8,57.7,37.4,54.1,45.0,30.9,81,64,47,30.05,29.86,8,3,0,0.00
2013-4-16,64.0,57.1,45.3,59.9,52.9,44.8,98,87,67,30.15,29.85,11,4,0,0.16
2013-4-17,60.8,47.9,33.4,44.5,38.4,32.9,98,72,51,30.28,30.09,7,2,0,0.00
2013-4-18,84.9,65.3,45.7,65.8,54.3,35.4,89,68,53,30.12,29.54,11,5,0,0.02
2013-4-19,73.6,56.8,41.7,63.9,50.1,33.4,98,79,67,29.66,29.24,17,6,0,0.08
2013-4-20,42.1,37.8,30.9,35.2,29.1,24.0,92,71,54,30.33,29.65,11,5,0,0.01
2013-4-21,49.6,37.0,22.8,32.2,25.7,19.8,91,65,49,30.60,30.35,7,2,0,0.00
2013-4-22,65.5,47.9,27.5,38.7,30.6,21.6,89,54,30,30.50,30.21,6,2,0,0.00
2013-4-23,69.8,54.1,35.4,43.2,37.1,28.7,86,55,33,30.23,29.80,6,1,0,0.00
2013-4-24,63.1,53.4,37.0,58.6,46.5,34.6,98,80,49,29.97,29.54,8,4,0,0.63
2013-4-25,56.8,43.8,30.4,42.2,36.7,29.1,98,79,43,30.24,29.97,9,3,0,0.02
2013-4-26,57.7,45.6,32.2,41.7,34.6,27.9,98,69,41,30.41,30.24,6,1,0,0.00
2013-4-27,73.0,54.5,33.3,46.4,37.9,29.0,90,58,29,30.35,30.11,4,1,0,0.00
2013-4-28,75.9,58.6,43.0,54.4,46.9,40.6,92,70,34,30.10,29.89,9,2,0,0.11
2013-4-29,66.4,59.1,51.4,58.2,54.2,49.8,98,84,72,29.93,29.85,6,2,0,0.05
2013-4-30,77.5,65.2,54.7,60.0,56.6,52.1,98,75,53,30.10,29.93,6,2,0,0.00
2013-5-1,83.7,67.5,56.1,62.2,55.2,48.9,88,66,42,30.24,30.10,7,2,0,0.00
2013-5-2,82.8,65.9,47.8,51.3,46.4,41.0,91,53,23,30.33,30.13,6,2,0,0.00
2013-5-3,83.5,67.0,49.6,55.2,49.7,44.8,91,58,34,30.21,30.05,6,2,0,0.00
2013-5-4,78.6,64.7,48.2,52.6,47.4,41.3,89,57,30,30.18,30.01,7,2,0,0.00
2013-5-5,81.3,64.0,45.5,53.9,49.4,44.4,98,64,32,30.13,29.95,6,1,0,0.00
2013-5-6,80.8,62.4,43.3,49.4,44.1,36.1,96,58,22,30.07,29.92,8,1,0,0.05
2013-5-7,82.0,65.7,48.0,60.1,53.7,42.3,98,68,43,30.04,29.88,11,1,0,0.00
2013-5-8,72.5,62.8,53.1,64.3,58.3,51.1,98,86,67,29.94,29.83,4,0,0,0.14
2013-5-9,70.5,61.3,52.7,65.8,59.1,51.7,98,93,77,29.87,29.78,5,1,0,0.22
2013-5-10,77.0,60.1,48.7,67.0,57.7,48.2,98,93,66,29.86,29.61,6,1,0,0.42
2013-5-11,60.3,52.0,47.5,59.7,49.9,45.3,98,93,82,29.69,29.57,6,2,0,0.05
2013-5-12,51.3,43.7,37.2,49.2,38.6,32.8,94,83,65,29.86,29.60,10,3,0,0.23
2013-5-13,49.1,41.3,33.4,42.3,35.4,30.8,90,80,64,30.06,29.87,5,2,0,0.02
2013-5-14,61.0,48.2,32.5,43.8,36.7,29.8,93,67,40,30.08,29.82,4,1,0,0.00
2013-5-15,79.9,62.7,48.7,63.4,52.2,43.3,91,70,48,29.82,29.43,14,2,0,0.00
2013-5-16,79.3,63.7,48.7,57.7,49.0,39.4,91,63,31,29.93,29.64,5,2,0,0.00
2013-5-17,68.4,55.8,40.5,50.1,45.0,37.3,90,69,49,30.13,29.93,4,1,0,0.00
2013-5-18,76.6,61.8,45.5,54.3,48.9,42.2,89,65,44,30.16,30.02,5,2,0,0.01
2013-5-19,85.8,69.9,52.3,67.0,60.0,48.0,89,72,51,30.04,29.84,5,1,0,0.00
2013-5-20,89.2,75.6,60.4,71.7,66.2,56.8,89,74,51,29.94,29.73,7,1,0,0.00
2013-5-21,89.4,75.3,63.9,75.2,67.2,60.2,88,77,58,29.82,29.62,4,1,0,0.00
2013-5-22,87.8,75.2,62.2,72.9,65.8,58.0,89,74,55,29.70,29.51,5,1,0,0.00
2013-5-23,75.4,63.9,44.8,68.0,59.2,40.3,94,85,72,29.83,29.59,9,2,0,0.30
2013-5-24,54.3,44.6,39.6,41.7,37.6,32.8,85,77,59,30.15,29.84,6,3,0,0.21
2013-5-25,63.7,50.7,38.3,44.7,39.1,32.7,84,66,47,30.19,30.10,8,2,0,0.00
2013-5-26,68.7,54.1,40.3,46.6,39.5,34.6,86,61,33,30.17,30.09,5,1,0,0.00
2013-5-27,75.2,58.2,40.1,53.2,43.4,35.9,92,62,33,30.21,30.03,4,0,0,0.00
2013-5-28,68.0,59.2,52.7,63.4,53.9,43.6,98,83,69,30.06,29.81,5,0,0,2.14
2013-5-29,82.0,70.4,63.7,70.0,65.8,62.3,98,86,63,29.92,29.78,6,2,0,0.67
2013-5-30,87.6,74.5,61.5,73.6,67.5,60.9,98,81,60,30.03,29.92,5,1,0,0.00
2013-5-31,89.8,77.2,65.7,73.1,68.8,65.1,98,78,55,29.97,29.80,5,1,0,0.03
2013-6-1,87.8,73.8,66.0,74.5,69.6,65.4,98,88,64,29.86,29.64,8,2,0,1.41
2013-6-2,74.8,68.7,57.2,70.4,64.8,53.9,98,88,73,29.81,29.59,8,2,0,1.52
2013-6-3,65.7,56.2,46.9,54.2,49.7,44.9,98,80,63,29.95,29.81,5,2,0,0.00
2013-6-4,71.6,58.3,45.1,51.7,46.9,42.9,98,69,38,30.09,29.96,5,1,0,0.00
2013-6-5,73.0,59.4,48.0,54.7,50.1,44.5,98,74,50,30.13,29.97,7,2,0,0.00
2013-6-6,61.9,57.3,53.8,61.3,54.4,44.8,98,91,64,29.97,29.71,4,1,0,1.13
2013-6-7,63.3,58.7,55.0,60.3,57.8,54.4,98,97,90,29.78,29.71,5,1,0,0.01
2013-6-8,67.3,60.2,56.7,63.1,58.7,56.1,98,95,83,29.99,29.73,3,0,0,0.04
2013-6-9,80.2,66.6,52.3,64.1,59.3,51.8,98,80,53,30.11,29.98,4,1,0,0.00
2013-6-10,75.0,67.3,62.4,72.5,65.6,59.8,98,95,85,29.99,29.59,5,1,0,0.23
2013-6-11,75.6,67.4,61.0,66.8,63.9,60.4,98,89,69,29.75,29.55,5,1,0,0.06
2013-6-12,81.0,68.6,54.3,63.1,59.9,53.7,98,76,51,29.84,29.65,4,0,0,0.00
2013-6-13,66.9,62.7,58.8,64.5,61.4,58.2,98,96,81,29.69,29.39,7,2,0,1.47
2013-6-14,77.0,64.0,53.4,66.3,60.2,52.8,98,89,59,29.91,29.70,4,1,0,0.00
2013-6-15,73.6,63.5,50.9,62.0,56.3,50.4,98,79,57,29.99,29.84,4,1,0,0.02
2013-6-16,78.1,67.3,61.5,73.5,64.8,59.1,98,92,80,29.85,29.61,5,1,0,0.20
2013-6-17,82.4,69.9,59.7,69.4,63.9,59.1,98,83,60,29.81,29.71,5,1,0,0.00
2013-6-18,69.4,61.4,55.6,61.5,56.8,51.1,98,86,55,29.93,29.78,5,1,0,0.00
2013-6-19,73.0,61.2,51.1,54.9,50.6,45.9,98,72,40,30.10,29.93,8,1,0,0.00
2013-6-20,81.9,63.6,46.4,58.8,52.6,45.9,98,72,36,30.17,30.10,5,1,0,0.00
2013-6-21,85.8,67.6,51.1,63.0,55.4,49.9,98,70,40,30.19,30.06,4,0,0,0.00
2013-6-22,86.0,74.6,60.3,74.1,67.6,56.6,98,80,63,30.07,29.88,6,1,0,0.00
2013-6-23,88.9,78.1,68.2,76.0,71.4,67.6,98,81,55,29.98,29.87,6,1,0,0.04
2013-6-24,86.0,77.7,71.2,75.1,71.2,67.7,98,81,63,29.96,29.82,6,2,0,0.00
2013-6-25,80.8,74.4,70.3,74.1,71.1,67.5,98,90,74,29.85,29.69,8,2,0,0.02
2013-6-26,82.8,74.7,68.5,74.7,70.4,67.5,98,87,68,29.75,29.67,4,1,0,0.00
2013-6-27,81.9,71.3,64.9,76.6,69.6,64.3,98,95,84,29.71,29.53,5,0,0,0.40
2013-6-28,75.4,67.5,63.0,73.5,66.8,62.4,98,98,92,29.55,29.38,3,0,0,0.81
2013-6-29,79.2,68.2,62.1,71.3,65.5,61.5,98,92,74,29.61,29.38,4,1,0,0.06
2013-6-30,79.5,70.0,61.2,69.9,65.3,60.6,98,86,69,29.83,29.60,5,1,0,0.01
2013-7-1,71.6,66.3,60.4,67.4,64.9,59.8,98,95,85,29.98,29.82,6,2,0,0.13
2013-7-2,77.2,67.7,59.4,72.3,65.9,58.8,98,94,83,29.99,29.92,6,1,0,0.01
2013-7-3,90.7,77.0,65.1,79.7,72.7,64.5,98,88,61,30.05,29.96,3,1,0,0.13
2013-7-4,85.5,75.8,70.0,76.6,72.9,69.4,98,91,69,30.10,29.99,6,0,0,0.06
2013-7-5,85.6,75.8,70.0,79.4,73.2,69.4,98,92,73,30.04,29.94,4,1,0,0.39
2013-7-6,86.7,75.7,66.7,77.2,71.9,66.1,98,89,69,30.06,29.91,3,1,0,0.00
2013-7-7,82.2,75.4,71.1,75.7,72.5,70.5,98,91,73,29.95,29.83,7,2,0,0.06
2013-7-8,84.7,75.7,69.1,77.1,72.8,68.5,98,91,71,29.96,29.88,5,1,0,0.00
2013-7-9,82.4,75.3,70.5,76.9,73.5,69.9,98,94,82,29.94,29.79,3,0,0,0.04
2013-7-10,85.5,76.3,71.2,80.6,74.3,66.3,98,94,80,29.80,29.57,6,2,0,0.06
2013-7-11,78.6,70.1,60.6,65.8,63.2,59.5,98,80,60,29.91,29.75,4,1,0,0.02
2013-7-12,77.0,68.7,60.6,70.7,66.1,60.0,98,92,79,30.09,29.91,4,1,0,0.03
2013-7-13,86.7,73.4,59.9,74.6,68.7,59.3,98,87,64,30.15,30.07,6,1,0,0.00
2013-7-14,92.8,79.3,66.9,79.3,73.2,66.3,98,84,59,30.22,30.12,5,0,0,0.00
2013-7-15,93.7,80.4,71.6,80.1,73.6,64.8,98,82,49,30.22,30.12,4,0,0,0.00
2013-7-16,94.3,81.8,70.7,81.9,74.5,68.0,98,81,51,30.21,30.08,3,0,0,0.00
2013-7-17,92.7,83.3,76.6,84.6,79.4,76.0,98,89,61,30.15,29.96,5,1,0,0.00
2013-7-18,92.7,82.7,75.6,83.8,78.4,75.0,98,88,68,30.01,29.83,4,1,0,0.00
2013-7-19,90.9,82.0,68.5,81.9,76.9,67.9,98,85,65,29.84,29.59,9,3,0,1.75
2013-7-20,85.1,73.9,67.1,76.1,71.1,66.5,98,92,61,29.80,29.62,4,1,0,1.48
2013-7-21,80.4,71.9,63.3,69.1,66.5,62.7,98,84,65,29.91,29.79,4,1,0,0.02
2013-7-22,81.1,70.8,59.4,72.5,66.8,58.8,98,88,70,29.91,29.67,4,1,0,0.00
2013-7-23,84.4,73.2,61.3,75.6,70.0,60.7,98,90,66,29.67,29.51,5,1,0,0.55
2013-7-24,71.1,63.0,55.2,60.9,56.2,53.3,98,80,58,29.94,29.64,7,2,0,0.00
2013-7-25,78.8,64.3,51.3,62.6,57.2,50.8,98,80,52,30.04,29.94,5,1,0,0.00
2013-7-26,79.7,65.9,50.7,64.9,59.1,50.2,98,81,55,30.04,29.88,3,0,0,0.05
2013-7-27,79.2,69.0,58.8,71.0,65.3,58.2,98,89,69,29.89,29.68,4,0,0,0.45
2013-7-28,74.8,67.8,61.5,66.5,62.1,57.2,98,83,60,29.87,29.66,4,1,0,0.04
2013-7-29,73.6,65.0,58.3,66.9,60.9,56.8,98,87,72,30.05,29.86,4,1,0,0.16
2013-7-30,80.1,67.9,56.7,66.8,62.0,56.1,98,83,59,30.12,30.03,4,1,0,0.00
2013-7-31,79.9,69.1,57.0,68.4,62.9,56.4,98,83,55,30.05,29.81,3,0,0,0.00
2013-8-1,82.9,70.8,63.5,71.9,67.9,62.9,98,91,60,29.80,29.67,8,1,0,0.54
2013-8-2,79.0,69.0,57.7,72.6,64.2,57.1,98,86,65,29.79,29.71,6,1,0,0.19
2013-8-3,79.0,68.9,59.5,67.8,62.5,58.9,98,82,54,29.85,29.73,4,1,0,0.01
2013-8-4,75.7,64.8,54.3,65.1,58.4,53.2,98,81,55,29.98,29.84,6,1,0,0.00
2013-8-5,75.7,63.1,50.4,65.3,56.6,49.9,98,82,56,30.04,29.91,3,0,0,0.00
2013-8-6,83.5,68.9,55.4,66.3,60.9,54.8,98,79,49,29.95,29.84,3,0,0,0.00
2013-8-7,83.1,74.3,64.8,74.1,69.2,63.7,98,85,68,29.87,29.72,7,1,0,0.00
2013-8-8,85.8,75.3,66.4,77.6,72.8,65.8,98,92,76,29.86,29.78,3,1,0,0.57
2013-8-9,81.0,70.9,63.9,71.7,67.7,63.3,98,90,66,29.85,29.76,5,1,0,0.34
2013-8-10,76.5,67.7,57.7,65.8,60.6,55.8,98,80,51,30.00,29.85,4,1,0,0.01
2013-8-11,79.2,65.8,53.4,64.9,58.8,52.8,98,81,53,30.05,29.92,3,0,0,0.00
2013-8-12,80.2,70.3,60.6,69.9,65.9,60.0,98,87,64,29.96,29.76,4,1,0,0.00
2013-8-13,73.2,66.9,56.5,71.2,62.1,52.3,98,85,64,29.80,29.65,4,1,0,0.77
2013-8-14,73.2,61.7,53.1,58.2,54.5,51.5,98,79,50,30.00,29.79,6,2,0,0.00
2013-8-15,76.6,63.0,51.1,63.0,56.0,50.6,98,80,56,30.05,29.97,5,1,0,0.00
2013-8-16,79.9,65.6,52.7,67.0,59.7,52.2,98,83,57,30.10,30.02,4,0,0,0.00
2013-8-17,82.0,68.0,53.6,67.7,59.4,53.0,98,78,47,30.20,30.10,3,0,0,0.00
2013-8-18,84.0,69.2,55.8,69.3,62.7,55.2,98,82,53,30.15,30.00,3,0,0,0.00
2013-8-19,84.2,70.9,59.2,71.9,65.0,58.6,98,83,57,30.03,29.92,3,0,0,0.00
2013-8-20,84.6,72.4,61.0,73.6,67.4,60.4,98,86,62,30.05,29.97,3,1,0,0.00
2013-8-21,86.5,73.4,61.3,73.7,67.7,60.7,98,84,59,30.08,29.91,5,0,0,0.00
2013-8-22,82.0,73.3,64.4,77.6,70.3,62.6,98,91,73,29.95,29.80,5,1,0,0.00
2013-8-23,78.6,66.6,55.9,66.6,59.8,55.3,98,81,53,30.12,29.90,5,1,0,0.00
2013-8-24,80.2,65.2,51.4,65.9,57.7,50.9,98,80,52,30.27,30.11,4,1,0,0.00
2013-8-25,84.2,69.4,52.9,69.5,60.9,52.4,98,78,48,30.25,30.02,4,1,0,0.04
2013-8-26,79.9,72.0,68.4,76.9,70.8,67.8,98,96,85,30.05,29.83,6,1,0,0.99
2013-8-27,85.6,75.3,67.3,79.7,73.4,66.7,98,94,80,29.86,29.75,3,0,0,0.07
2013-8-28,88.2,76.5,70.0,78.9,73.8,69.4,98,92,73,29.86,29.73,5,1,0,0.29
2013-8-29,89.6,75.2,64.9,77.6,70.4,64.3,98,87,64,29.96,29.86,4,0,0,0.00
2013-8-30,87.1,74.9,66.0,76.8,71.5,65.4,98,90,65,29.90,29.63,4,1,0,0.00
2013-8-31,85.5,75.6,68.4,77.2,72.9,67.8,98,92,72,29.75,29.61,3,1,0,0.04
2013-9-1,86.5,74.2,66.6,79.2,71.9,66.0,98,93,72,29.74,29.63,3,1,0,0.18
2013-9-2,84.7,72.7,63.0,77.7,69.8,60.1,98,91,73,29.70,29.57,3,1,0,0.01
2013-9-3,70.7,64.2,57.9,64.9,61.4,57.3,98,91,80,29.86,29.69,3,0,0,0.00
2013-9-4,79.2,67.6,54.5,69.2,61.9,53.9,98,84,49,29.91,29.84,6,1,0,0.01
2013-9-5,70.9,60.0,48.4,65.2,53.6,46.9,98,82,50,30.15,29.87,8,1,0,0.00
2013-9-6,73.2,58.0,43.2,57.4,50.6,42.7,98,79,50,30.21,30.00,5,1,0,0.00
2013-9-7,68.4,61.8,54.9,65.4,60.4,54.3,98,95,80,29.99,29.77,5,0,0,0.33
2013-9-8,71.6,63.7,50.5,66.7,57.7,50.0,98,82,57,30.01,29.76,7,2,0,0.01
2013-9-9,76.5,61.9,45.9,68.1,57.5,45.4,98,87,64,30.04,29.83,3,0,0,0.00
2013-9-10,87.8,78.6,69.4,78.9,74.7,68.8,98,89,72,29.91,29.79,7,2,0,0.23
2013-9-11,89.1,79.6,69.3,78.9,75.4,68.7,98,88,68,29.94,29.77,6,2,0,0.68
2013-9-12,77.2,69.3,59.5,74.6,68.4,58.9,98,97,86,29.84,29.63,5,0,0,0.13
2013-9-13,60.1,55.1,50.5,59.5,54.0,48.3,98,96,81,29.95,29.69,5,2,0,0.02
2013-9-14,66.7,55.4,46.0,52.2,48.5,39.8,98,80,43,30.05,29.94,4,1,0,0.01
2013-9-15,69.4,58.5,46.2,60.7,54.3,45.7,98,87,69,30.06,29.95,6,1,0,0.09
2013-9-16,56.1,51.5,41.7,55.5,50.5,41.2,98,96,85,30.29,29.97,6,1,0,0.03
2013-9-17,68.2,51.4,36.9,56.2,45.7,36.4,98,83,52,30.40,30.19,5,1,0,0.00
2013-9-18,76.6,56.9,41.5,58.7,50.3,41.0,98,82,48,30.18,29.99,3,0,0,0.00
2013-9-19,79.5,62.4,48.6,66.7,58.0,48.1,98,87,65,30.04,29.89,4,1,0,0.00
2013-9-20,82.2,70.0,55.4,73.6,65.4,54.8,98,86,71,29.91,29.61,8,1,0,0.00
2013-9-21,74.3,63.6,53.1,71.4,62.7,52.5,98,97,87,29.66,29.51,5,1,0,3.65
2013-9-22,61.2,53.0,46.9,52.5,49.1,46.4,98,87,68,29.95,29.64,6,1,0,0.00
2013-9-23,64.0,52.5,43.5,50.7,47.0,43.0,98,83,56,30.06,29.95,4,1,0,0.00
2013-9-24,69.6,52.3,39.2,57.1,47.5,38.7,98,85,59,30.08,29.91,4,1,0,0.00
2013-9-25,72.7,54.6,40.5,59.5,49.4,40.0,98,85,55,29.93,29.83,4,0,0,0.00
2013-9-26,74.5,56.7,41.9,61.5,51.7,41.4,98,85,57,30.06,29.90,5,1,0,0.00
2013-9-27,72.1,58.9,47.7,62.8,55.3,47.2,98,89,69,30.18,30.06,4,1,0,0.00
2013-9-28,77.5,61.4,46.8,63.3,55.8,46.3,98,84,55,30.20,30.05,3,1,0,0.00
2013-9-29,78.3,61.8,47.5,63.6,56.7,47.0,98,85,60,30.05,29.86,5,1,0,0.00
2013-9-30,75.2,65.7,57.6,67.5,62.8,57.0,98,91,74,29.91,29.83,5,1,0,0.00
2013-10-1,78.3,66.7,59.5,68.1,63.8,58.9,98,91,69,29.92,29.79,5,1,0,0.02
2013-10-2,77.4,67.3,54.5,69.5,64.8,53.9,98,92,74,29.98,29.81,5,1,0,0.00
2013-10-3,73.4,61.0,46.6,60.5,54.1,46.1,98,81,48,30.04,29.90,3,0,0,0.02
2013-10-4,74.7,67.1,59.5,74.1,66.5,58.9,98,98,98,29.95,29.88,2,0,0,2.10
2013-10-5,69.1,62.4,59.5,68.5,61.8,58.9,98,98,98,30.00,29.89,5,1,0,0.89
2013-10-6,83.1,69.0,59.5,76.3,67.1,58.9,98,94,76,29.89,29.56,5,1,0,0.76
2013-10-7,75.4,59.8,48.2,69.2,57.1,47.7,98,91,76,29.96,29.54,7,2,0,0.80
2013-10-8,67.1,53.3,43.0,56.2,48.8,42.5,98,86,60,30.25,29.97,4,0,0,0.00
2013-10-9,72.1,54.7,40.5,54.1,48.3,40.0,98,82,48,30.30,30.16,5,0,0,0.00
2013-10-10,73.6,54.3,41.2,54.3,47.1,40.7,98,80,43,30.18,30.03,4,0,0,0.00
2013-10-11,74.3,56.2,43.3,60.0,50.5,42.8,98,84,48,30.07,29.98,6,1,0,0.00
2013-10-12,79.7,58.8,41.9,61.5,50.1,41.4,98,77,37,30.10,29.98,5,0,0,0.00
2013-10-13,70.7,61.7,52.7,65.4,58.5,46.4,98,90,76,30.17,30.04,5,1,0,0.45
2013-10-14,66.7,56.5,45.0,58.8,52.7,44.5,98,88,61,30.26,30.16,4,1,0,0.14
2013-10-15,70.7,56.5,43.9,61.6,53.4,42.8,98,90,70,30.20,29.83,4,0,0,0.00
2013-10-16,70.9,63.0,53.4,65.8,60.6,52.8,98,92,77,29.82,29.63,7,2,0,0.56
2013-10-17,63.9,55.8,51.3,57.3,53.2,50.8,98,92,73,29.79,29.59,4,1,0,0.56
2013-10-18,63.0,53.6,46.4,53.0,48.6,45.5,98,85,58,29.79,29.62,6,2,0,0.05
2013-10-19,60.4,52.2,42.3,55.2,49.9,41.8,98,92,71,29.78,29.54,5,1,0,0.39
2013-10-20,57.7,47.4,39.2,50.9,44.2,38.7,98,89,68,29.86,29.68,4,1,0,0.00
2013-10-21,67.6,54.9,43.2,53.0,47.3,42.7,98,78,50,29.86,29.68,7,2,0,0.19
2013-10-22,51.4,45.5,39.4,49.5,37.7,32.6,98,75,58,29.74,29.65,7,2,0,0.38
2013-10-23,49.6,41.2,34.9,44.0,37.8,31.9,98,88,72,29.72,29.59,3,1,0,0.07
2013-10-24,51.4,39.8,32.0,39.4,35.7,30.7,98,86,60,29.93,29.70,7,2,0,0.00
2013-10-25,53.1,42.2,33.6,43.2,36.0,28.9,95,79,62,30.09,29.93,4,1,0,0.00
2013-10-26,45.9,43.1,40.1,41.2,38.5,35.1,92,84,70,30.01,29.65,17,3,0,0.60
2013-10-27,50.2,42.1,36.1,42.8,36.7,31.2,92,82,65,29.95,29.71,5,1,0,0.00
2013-10-28,50.5,42.4,27.5,43.4,34.9,24.4,90,76,48,30.31,29.93,7,1,0,0.00
2013-10-29,53.2,39.5,26.6,36.6,31.8,23.8,92,76,50,30.37,30.20,3,1,0,0.00
2013-10-30,61.5,46.8,36.3,46.2,40.3,32.2,91,79,55,30.19,29.97,3,0,0,0.00
2013-10-31,67.6,56.5,40.1,63.7,50.6,36.3,92,81,54,29.96,29.22,8,2,0,1.15
2013-11-1,63.3,55.8,47.5,60.3,51.6,45.6,93,86,73,29.56,29.03,12,5,0,0.53
2013-11-2,51.8,44.9,37.6,48.9,42.8,37.0,98,92,84,29.93,29.49,8,2,0,0.16
2013-11-3,41.4,33.6,23.4,36.7,27.5,21.9,98,79,58,30.45,29.94,6,2,0,0.00
2013-11-4,44.1,33.5,21.4,29.9,25.4,20.2,98,74,53,30.55,30.33,6,1,0,0.00
2013-11-5,61.5,45.8,28.8,43.7,35.2,24.7,91,68,50,30.36,30.20,5,1,0,0.00
2013-11-6,66.9,56.4,45.7,58.4,48.5,35.6,98,76,60,30.21,29.70,8,2,0,0.58
2013-11-7,56.1,44.2,38.7,55.5,39.5,32.1,98,84,69,29.92,29.68,6,3,0,0.19
2013-11-8,44.8,40.1,36.9,34.9,33.0,31.6,83,76,64,30.14,29.88,5,2,0,0.00
2013-11-9,51.6,43.9,32.9,48.2,36.8,29.4,98,77,54,30.13,29.66,9,2,0,0.06
2013-11-10,49.1,44.1,37.2,46.4,38.0,32.5,98,79,70,30.11,29.68,9,4,0,0.03
2013-11-11,45.5,37.5,29.7,42.8,35.4,27.9,98,92,74,30.10,29.81,10,2,0,0.42
2013-11-12,35.2,29.6,24.8,28.5,23.5,17.8,94,78,61,30.32,30.05,6,2,0,0.03
2013-11-13,40.6,33.4,23.9,31.7,26.4,19.4,92,76,62,30.35,30.00,11,4,0,0.00
2013-11-14,48.9,43.8,38.7,36.6,32.7,29.2,85,66,51,30.02,29.89,11,6,0,0.00
2013-11-15,53.4,46.7,41.7,41.3,34.7,31.2,83,63,50,30.01,29.93,6,3,0,0.00
2013-11-16,61.0,49.2,35.4,48.1,41.7,33.0,93,76,62,30.12,29.87,6,1,0,0.00
2013-11-17,64.6,59.1,52.5,60.4,55.8,47.9,98,89,80,29.87,29.21,11,4,0,0.54
2013-11-18,55.2,45.7,36.1,49.5,38.9,29.7,93,77,69,29.84,29.27,15,6,0,0.03
2013-11-19,40.6,33.9,22.1,30.1,26.5,20.1,93,75,60,30.37,29.85,7,2,0,0.00
2013-11-20,43.7,30.5,18.5,30.7,23.7,16.8,98,77,56,30.48,30.31,6,2,0,0.00
2013-11-21,47.7,38.0,23.4,40.0,31.3,19.6,98,78,56,30.33,30.14,5,1,0,0.09
2013-11-22,48.7,42.6,30.7,44.7,40.4,27.8,98,92,83,30.14,29.89,6,1,0,0.36
2013-11-23,34.5,27.6,18.3,29.5,21.5,9.9,94,78,60,30.16,29.93,8,3,0,0.00
2013-11-24,25.9,20.0,14.9,18.1,13.9,9.9,91,77,61,30.35,30.15,6,3,0,0.00
2013-11-25,36.7,28.9,16.2,31.9,19.4,10.9,94,69,48,30.31,29.98,9,4,0,0.00
2013-11-26,36.3,33.6,32.5,34.2,32.5,30.9,98,96,85,30.03,29.71,8,2,0,0.07
2013-11-27,38.3,30.7,23.0,36.7,30.1,22.5,98,97,92,29.84,29.56,0,0,0,0.00
2013-11-28,35.6,23.9,16.5,26.8,21.1,16.0,98,90,64,30.33,29.87,0,0,0,0.00
2013-11-29,39.0,22.9,10.6,26.5,18.9,9.0,98,86,60,30.64,30.33,0,0,0,0.02
2013-11-30,40.1,26.1,9.0,28.6,20.2,7.4,94,79,60,30.61,30.08,0,0,0,0.01
2013-12-1,45.5,37.4,30.4,37.0,32.7,28.1,93,84,66,30.08,29.84,5,0,0,1.11
2013-12-2,40.8,35.3,26.1,38.2,33.9,25.6,98,95,88,29.85,29.74,3,0,0,0.05
2013-12-3,43.7,31.3,20.5,32.9,27.7,20.0,98,88,62,29.88,29.80,3,1,0,0.00
2013-12-4,54.0,41.5,33.4,46.3,38.9,31.3,98,91,74,29.89,29.72,3,1,0,0.02
2013-12-5,62.2,51.3,38.3,57.6,47.8,35.7,98,88,80,29.96,29.61,9,4,0,0.00
2013-12-6,37.2,33.5,29.8,35.3,28.4,23.8,98,82,67,30.18,29.94,4,2,0,0.07
2013-12-7,30.9,26.2,19.8,24.0,18.6,12.0,87,73,58,30.50,30.17,6,3,0,0.00
2013-12-8,30.0,23.3,14.2,24.8,17.0,10.2,97,77,62,30.50,30.06,6,2,0,0.00
2013-12-9,38.7,32.8,26.6,38.2,30.7,23.5,98,92,82,30.05,29.74,11,4,0,0.05
2013-12-10,29.3,23.4,18.9,23.9,16.2,12.0,98,74,61,29.98,29.78,8,4,0,0.00
2013-12-11,29.3,21.2,13.5,19.5,13.3,7.7,88,71,60,30.21,30.00,12,4,0,0.00
2013-12-12,20.8,15.5,8.6,19.1,9.4,2.5,98,77,58,30.26,29.98,8,3,0,0.00
2013-12-13,29.7,18.9,13.1,24.3,15.2,9.5,94,86,74,30.30,29.96,9,2,0,0.00
2013-12-14,16.5,14.0,12.2,16.0,11.8,6.2,98,91,74,30.32,29.63,6,3,0,0.00
2013-12-15,26.2,21.0,15.8,25.7,19.4,9.6,98,94,74,29.79,29.51,0,0,0,0.00
2013-12-16,28.6,13.6,1.0,16.6,7.2,-1.5,90,76,57,30.07,29.80,1,0,0,0.00
2013-12-17,29.8,18.7,0.0,27.5,16.6,-2.7,98,91,81,30.03,29.78,3,0,0,0.00
2013-12-18,35.8,28.1,21.7,28.6,24.3,21.2,98,86,71,29.96,29.82,6,0,0,0.00
2013-12-19,44.2,35.0,25.9,36.5,30.7,20.0,98,85,72,29.93,29.78,12,2,0,0.41
2013-12-20,43.0,39.1,34.2,37.3,34.8,32.0,98,85,70,29.89,29.66,3,1,0,0.94
2013-12-21,52.5,41.3,34.0,48.3,36.3,26.3,88,82,73,29.75,29.60,6,2,0,1.25
2013-12-22,42.4,36.7,33.4,33.7,28.9,25.2,79,73,68,29.85,29.48,6,2,0,1.65
2013-12-23,39.4,33.8,24.1,32.9,28.3,19.0,87,80,72,30.17,29.84,7,3,0,0.00
2013-12-24,28.4,20.5,6.3,23.6,16.2,2.5,87,83,73,30.43,30.11,4,1,0,0.00
2013-12-25,27.7,13.6,-2.7,20.8,8.0,-5.8,86,79,61,30.43,30.09,3,0,0,0.00
2013-12-26,36.3,27.7,18.3,33.4,22.0,13.4,89,79,62,30.19,29.94,6,2,0,0.00
2013-12-27,37.6,28.8,18.1,32.0,23.6,12.6,90,81,53,30.20,29.96,6,2,0,0.00
2013-12-28,43.0,38.4,32.5,37.9,32.8,17.0,90,81,50,30.00,29.82,8,3,0,0.30
2013-12-29,47.3,40.6,27.3,40.8,34.0,22.3,90,78,57,29.82,29.50,9,3,0,0.00
2013-12-30,27.3,19.7,13.3,22.3,13.1,6.8,88,75,65,30.11,29.70,5,2,0,0.00
2013-12-31,25.2,17.9,11.3,21.3,12.1,4.3,89,78,63,30.14,29.84,10,3,0,0.00
2014-1-1,25.5,15.9,9.3,14.8,9.4,3.0,89,76,55,30.31,30.14,7,2,0,0.00
2014-1-2,13.6,9.5,3.9,11.0,7.1,1.4,91,90,89,30.20,29.88,10,4,0,0.00